Location: Unspecified
(49.9820°N, 20.4363°E)
Time: 09:47:16
(UTC+02:00)

ISS - Pass Details

Date: 12 July 2018
Orbit: 402 x 408 km, 51.6° (Epoch: 23 July)

Event Time Altitude Azimuth Distance (km) Brightness Sun altitude
Exits shadow 01:15:28 19° 113° (ESE) 1,048 -1.9 -17.7°
Drops below altitude 10° 01:16:59 10° 89° (E) 1,472 -0.9 -17.6°
Sets 01:19:20 0° 75° (ENE) 2,337 0.4 -17.6°
